01:15
Airports
History
Links
Donate
Help keep this website running!
PayPal
Bitcoin
This page is community maintained. The information is intended for PC simulator navigation or reference.
Always use approved charts for navigation.
4A2
AtmautluakUpdated 21-May-2014
Atmautluak (4A2)
Alberta, Alabama, United States (36728)
4
Lat/Lng:60° 52' 4.4" N / 162° 16' 27.4" W
60.867889 / -162.274278
Elevation:19'ft / 6mMSL
Declination:E018°
ID / ICAO:4A2
FAA:4A2
Runways:1
Longest:17-35
Grass 917m / 3,010ft
(Edited 2014-05-21) [ Sign in to Edit ] (1)
Nearby Weather00:53 GMT 2017-10-20
Nearby weather at PABE, Bethel located 16.0 nautical miles from 4A2
Altimeter: 29.52
Visibility: 10.0 statute miles
Wind: 6 knots (from 260°)
Temp: -1°c / 30°f
Humidity: 86.2%

METAR: PABE 200053Z 26006KT 10SM SCT010 OVC043 M01/M03 A2952 RMK AO2 SLP999 T10111033

(Powered by phpweather)
Nearby VORs <50NM
Nearby NDBs
Runway 17 / 35
Dimensions:917.3 x 56.4m 3010' x 185'ft
Surface:Grass
Runway 17 [A]Runway 35 [B]
Heading:153°MH  171°TH333°MH   351°TH
Lat:
Lng:
32° 9' 45.07"N
87° 27' 2.71"W
32° 9' 15.97"N
87° 26' 57.27"W
User Notes and Comments
60° 52' 4.4" N / 162° 16' 27.4" W
Distance To
Airport ID:
Nearby Airports
4 Nunapitchuk 6.2 NM
16A WNW 295°
4 Kasigluk 8.4 NM
Z09 W 271°
4 Napakiak 15.8 NM
PANA SE 140°
(C) Bethel 16.0 NM
PABE ( WX ) ESE 112°
4 Napaskiak 20.2 NM
PAPK SE 124°
4 Kwethluk 28.5 NM
PFKW E 100°
4 Akiak 35.2 NM
PFAK E 86°
VFR Chart
Flight Planning at SkyVector.com